Weather in Neya

Russia / Kostroma Oblast     58°17′39″N   43°52′41″E
temp.,
°C
wind,
m/s
gust,
m/s
humid.,
%
clouds,
%
prec.,
mm/h
press.,
hPa
HPBL,
m
15 august, mon
mon1500:00+16ene11865 0.0 102317
03:00+14ese11948 0.0 102310
06:00+16ese11871 0.0 102452
09:00+23ese11638 0.0 1024540
12:00+26w12505 0.0 10241509
15:00+25wnw235170 0.1 1024868
18:00+23nnw23600 0.0 1023151
21:00+18nne12770 0.0 102512
16 august, tue
tue1600:00+18se007823 0.0 102511
03:00+16sse118828 0.0 102511
06:00+17se118462 0.0 102648
09:00+23se125990 0.0 1026470
12:00+26se224375 0.0 10251713
15:00+27se3240100 0.0 10242064
18:00+23se255998 0.0 1024139
21:00+19se2268100 0.0 102526
17 august, wed
wed1700:00+17se227173 0.0 102524
03:00+16se1176100 0.0 102511
06:00+16ese2276100 0.0 102567
09:00+22se2355100 0.0 1024525
12:00+25se334490 0.0 10241649
15:00+26se3341100 0.0 10231993
18:00+23e2259100 0.0 102232
21:00+18ese247337 0.0 102368
18 august, thu
thu1800:00+18ese227585 0.0 102342
03:00+18se227152 0.0 102334
06:00+17ese23763 0.0 102469
09:00+23se23530 0.0 1024527
12:00+26se33420 0.0 10231989
15:00+27se33380 0.0 10222197
18:00+25se22550 0.0 102340
21:00+19ese22700 0.0 102330
19 august, fri
fri1900:00+17ese22750 0.0 102423
03:00+16ese22760 0.0 102517
06:00+17ese24750 0.0 102699
09:00+24se24530 0.0 1026488
12:00+27se34402 0.0 10252041
15:00+28se343697 0.0 10252406
18:00+25ese235534 0.0 102562
21:00+20ese236699 0.0 102556